Martha's Vineyard, MA

12:08 PM EST on November 24, 2017 (GMT -0500)
Martha's Vineyard

Weather History for KMVY - August, 2014

Change the Weather History Date:

Saturday, August 9, 2014

  Actual Average Record
Temperature  
Mean Temperature 66 °F -  
Max Temperature 80 °F 79 °F 91 °F (2001)
Min Temperature 53 °F 64 °F 48 °F (1999)
Cooling Degree Days 1    
Growing Degree Days 16 (Base 50)    
Moisture  
Dew Point 60 °F    
Average Humidity 77    
Maximum Humidity 97    
Minimum Humidity 52    
Precipitation  
Precipitation 0.00 in - - ()
Sea Level Pressure  
Sea Level Pressure 30.05 in    
Wind  
Wind Speed 5 mph (WNW)    
Max Wind Speed 9 mph    
Max Gust Speed -    
Visibility 10 miles    
Events      
Averages and records for this station are not official NWS values.
T = Trace of Precipitation, MM = Missing Value Source: NWS Daily Summary

Daily Weather History Graph

Daily Weather History Graph

Search for Another Location

Airport or City:

Trip Planner

Search our weather history database for the weather conditions in past years. The results will help you decide how hot, cold, wet, or windy it might be!

Date:

Astronomy

Aug. 09, 2014 Rise Set
Actual Time 5:45 AM EDT 7:49 PM EDT
Civil Twilight 5:15 AM EDT 8:20 PM EDT
Nautical Twilight 4:37 AM EDT 8:57 PM EDT
Astronomical Twilight 3:57 AM EDT 9:37 PM EDT
Moon 6:48 PM EDT (8/9) 4:22 AM EDT (8/9)
Length of Visible Light 15h 05m
Length of Day
14h 04m
Waxing Gibbous, 98% of the Moon is Illuminated
Aug 9
Waxing Gibbous
Aug 10
Full
Aug 17
Last Quarter
Aug 25
New
Sep 2
First Quarter

Hourly Weather History & Observations

Time (EDT) Temp. Dew Point Humidity Pressure Visibility Wind Dir Wind Speed Gust Speed Precip Events Conditions
12:53 AM 57.9 °F 57.0 °F 97% 30.01 in 10.0 mi WNW 4.6 mph - N/A   Clear
1:53 AM 59.0 °F 57.9 °F 96% 30.01 in 10.0 mi WNW 5.8 mph - N/A   Clear
2:53 AM 60.1 °F 57.9 °F 93% 30.01 in 10.0 mi WNW 5.8 mph - N/A   Clear
3:53 AM 55.9 °F 55.0 °F 97% 30.02 in 10.0 mi NW 5.8 mph - N/A   Clear
4:53 AM 55.9 °F 54.0 °F 93% 30.02 in 10.0 mi Calm Calm - N/A   Clear
5:53 AM 53.1 °F 52.0 °F 96% 30.04 in 10.0 mi WNW 4.6 mph - N/A   Clear
6:53 AM 62.1 °F 60.1 °F 93% 30.05 in 10.0 mi WNW 4.6 mph - N/A   Clear
7:53 AM 69.1 °F 62.1 °F 78% 30.06 in 10.0 mi NW 9.2 mph - N/A   Clear
8:53 AM 72.0 °F 61.0 °F 68% 30.06 in 10.0 mi NW 9.2 mph - N/A   Clear
9:53 AM 75.0 °F 62.1 °F 64% 30.07 in 10.0 mi NNW 8.1 mph - N/A   Clear
10:53 AM 77.0 °F 60.1 °F 56% 30.07 in 10.0 mi North 8.1 mph - N/A   Clear
11:53 AM 78.1 °F 60.1 °F 54% 30.06 in 10.0 mi North 4.6 mph - N/A   Clear
1:53 PM 79.0 °F 61.0 °F 54% 30.06 in 10.0 mi NE 9.2 mph - N/A   Partly Cloudy
2:53 PM 79.0 °F 60.1 °F 52% 30.06 in 10.0 mi ENE 3.5 mph - N/A   Clear
3:53 PM 77.0 °F 61.0 °F 58% 30.06 in 10.0 mi SE 4.6 mph - N/A   Clear
4:53 PM 75.0 °F 63.0 °F 66% 30.06 in 10.0 mi South 4.6 mph - N/A   Clear
5:53 PM 73.9 °F 62.1 °F 66% 30.06 in 10.0 mi South 6.9 mph - N/A   Clear
6:53 PM 71.1 °F 62.1 °F 73% 30.07 in 10.0 mi South 6.9 mph - N/A   Clear
7:53 PM 66.9 °F 62.1 °F 84% 30.08 in 10.0 mi SW 5.8 mph - N/A   Clear
8:53 PM 64.9 °F 63.0 °F 93% 30.09 in 10.0 mi SW 4.6 mph - N/A   Mostly Cloudy
9:53 PM 62.1 °F 61.0 °F 96% 30.10 in 10.0 mi SW 3.5 mph - N/A   Partly Cloudy